Regional Weather Roundup
Issued by NWS Newport/Morehead, NC

Current Version | Previous Version | Graphics & Text | Print | Product List | Glossary Off
Versions: 1 2 3 4 5 6 7 8 9 10 11 12 13 14 15 16 17 18 19 20 21 22 23 24 25 26 27 28 29 30 31 32 33 34 35 36 37 38 39 40 41 42 43 44 45 46 47 48 49 50

000
ASUS42 KMHX 240522
RWRMHX
WEATHER ROUNDUP FOR EASTERN NORTH CAROLINA
NATIONAL WEATHER SERVICE NEWPORT/MOREHEAD CITY NC
100 AM EDT THU JUL 24 2014

NOTE: "FAIR" INDICATES FEW OR NO CLOUDS BELOW 12,000 FEET
WITH NO SIGNIFICANT WEATHER AND/OR OBSTRUCTIONS TO VISIBILITY

NCZ015>017-031-032-045>047-102-103-240600-
NORTH COAST

CITY           SKY/WX    TMP DP  RH WIND       PRES   REMARKS
EDENTON        CLEAR     78  75  91 SW10      29.90F
ELIZABETH CITY CLEAR     78  75  90 SW12      29.90S
KITTY HAWK     CLEAR     79  75  89 SW9       29.89F
MANTEO         NOT AVBL

$$

NCZ045>047-081-094-103-104-240600-
CENTRAL COAST

CITY           SKY/WX    TMP DP  RH WIND       PRES   REMARKS
FRISCO         CLEAR     79  77  94 SW12      29.94F
SWANQUARTER      N/A     81 N/A N/A SW13      29.88S

$$

NCZ095-097-098-100-101-240600-
SOUTHERN COAST

CITY           SKY/WX    TMP DP  RH WIND       PRES   REMARKS
BEAUFORT       PTCLDY    81  76  84 SW13      29.95S
CEDAR ISLAND     N/A     79 N/A N/A SW9       29.97S
JACKSONVILLE   CLEAR     76  74  93 SW5       29.95R
NEWPORT        NOT AVBL
PINEY ISLAND   CLEAR     79  78  97 SW6       29.94F
WILMINGTON     PTCLDY    79  75  87 SW5       29.96R


$$

NCZ011>013-027>030-043-044-078>080-089-090>093-098-240600-
COASTAL PLAIN

CITY           SKY/WX    TMP DP  RH WIND       PRES   REMARKS
AHOSKIE        CLEAR     76  72  89 S3        29.90F
CLINTON        CLEAR     76  75  99 CALM      29.95S
ELIZABETHTOWN  CLEAR     77  75  94 S5        29.96S
GOLDSBORO      CLEAR     77  76  98 S5        29.92S
GREENVILLE     CLEAR     77  73  88 SW8       29.94F
HAVELOCK       CLEAR     77  73  87 SW9       29.96S
KENANSVILLE    CLEAR     75  73  93 CALM      29.95S
KINSTON        CLEAR     77  74  92 SW6       29.94S
NEW BERN       CLEAR     78  73  84 SW7       29.95S
RICHLANDS      CLEAR     75  72  88 SW5       29.95S
ROANOKE RAPIDS NOT AVBL
ROCKY MOUNT    CLEAR     77  74  90 S7        29.92S
WASHINGTON     CLEAR     76  73  92 SW6       29.93S
WHITEVILLE     PTCLDY    77  73  87 SW3       29.96R

$$

AMZ130-135-150-152-154-156-158-170-250-252-270-ANZ085-086-088-633-658-670-240600-
MARINE OBSERVATIONS

STATION/POSITION TIME  TEMP    WIND        PRES    WAVE   SWELL
                       AIR SEA DIR/SP/G            HT/PER HT/PER
                 (UTC) (F)     (DEG/KT/KT) (MB)    (FT/S) (FT/S)
CHESAPEAKE LIGHT NOT AVBL
BUOY 44014       0500   79 79  220/ 12/ 14 1011.5    3/ 6   2/ 6
DUCK             0500   80 74  220/ 12/ 18 1011.7
2E DUCK          0400                        N/A     2/ 9
OREGON INLET     0500   80 84  220/ 17/ 19 1012.8
BUOY 44095       0500      77                N/A     4/ 5
20E OREGON INLET NOT AVBL
HATTERAS CG      0500   78 83  220/  9/ 12 1014.1
DIAMOND BUOY     0500          VRB 17/ 21  1013.4    5/ 4   2/ 9
CAPE LOOKOUT     0500   80     230/ 12/ 16 1014.3
BEAUFORT LAB     0500   80 81  230/  6/ 12 1014.0
30 SE NEW RIVER  0500   80 81  240/ 16/ 17 1014.8    4/ 5   2/10
5 SE WRIGHTSVILL 0400   78 81  240/ 14/ 17   N/A
BUOY 41002       0436   82 82  210/ 17/ 21 1017.8    5/ 6   2/ 9
BUOY 41004       0500   82 82  220/ 14/ 16 1015.1    3/ 6   2/ 6

$$


USA.gov is the U.S. government's official web portal to all federal, state and local government web resources and services.